TimeMST,TemperatureF,Dew PointF,Humidity,Sea Level PressureIn,VisibilityMPH,Wind Direction,Wind SpeedMPH,Gust SpeedMPH,PrecipitationIn,Events,Conditions,WindDirDegrees,DateUTC
12:15 AM,17.6,15.8,93,30.05,10.0,NE,5.8,-,N/A,,Overcast,50,2012-12-31 07:15:00
12:35 AM,17.6,15.8,93,30.05,10.0,NE,6.9,-,N/A,,Mostly Cloudy,40,2012-12-31 07:35:00
12:55 AM,17.6,14.0,86,30.05,6.0,NE,5.8,-,N/A,,Overcast,40,2012-12-31 07:55:00
1:15 AM,17.6,14.0,86,30.05,2.5,NE,5.8,-,N/A,,Overcast,40,2012-12-31 08:15:00
1:35 AM,17.6,15.8,93,30.05,2.5,NE,6.9,-,N/A,,Overcast,40,2012-12-31 08:35:00
1:55 AM,17.6,14.0,86,30.06,5.0,NE,5.8,-,N/A,,Overcast,50,2012-12-31 08:55:00
2:15 AM,17.6,14.0,86,30.06,5.0,NE,5.8,-,N/A,,Overcast,50,2012-12-31 09:15:00
2:35 AM,17.6,14.0,86,30.05,9.0,NE,3.5,-,N/A,,Overcast,50,2012-12-31 09:35:00
2:55 AM,17.6,15.8,93,30.06,10.0,NE,4.6,-,N/A,,Overcast,40,2012-12-31 09:55:00
3:15 AM,17.6,14.0,86,30.06,10.0,Calm,Calm,-,N/A,,Mostly Cloudy,0,2012-12-31 10:15:00
4:15 AM,17.6,14.0,86,30.05,10.0,NE,3.5,-,N/A,,Overcast,40,2012-12-31 11:15:00
4:35 AM,17.6,15.8,93,30.04,9.0,Calm,Calm,-,N/A,,Overcast,0,2012-12-31 11:35:00
4:55 AM,17.6,14.0,86,30.04,10.0,Calm,Calm,-,N/A,,Mostly Cloudy,0,2012-12-31 11:55:00
5:35 AM,17.6,15.8,93,30.04,10.0,ENE,3.5,-,N/A,,Overcast,60,2012-12-31 12:35:00
5:55 AM,17.6,15.8,93,30.03,10.0,Calm,Calm,-,N/A,,Overcast,0,2012-12-31 12:55:00
6:15 AM,17.6,14.0,86,30.03,10.0,Calm,Calm,-,N/A,,Overcast,0,2012-12-31 13:15:00
6:35 AM,17.6,15.8,93,30.03,10.0,NNE,4.6,-,N/A,,Overcast,20,2012-12-31 13:35:00
6:55 AM,17.6,14.0,86,30.03,10.0,Calm,Calm,-,N/A,,Overcast,0,2012-12-31 13:55:00
7:15 AM,17.6,15.8,93,30.03,10.0,Calm,Calm,-,N/A,,Overcast,0,2012-12-31 14:15:00
7:35 AM,17.6,15.8,93,30.03,10.0,Calm,Calm,-,N/A,,Overcast,0,2012-12-31 14:35:00
8:15 AM,19.4,15.8,86,30.03,10.0,South,3.5,-,N/A,,Overcast,180,2012-12-31 15:15:00
8:35 AM,19.4,15.8,86,30.03,10.0,Calm,Calm,-,N/A,,Overcast,0,2012-12-31 15:35:00
8:55 AM,19.4,15.8,86,30.03,8.0,South,5.8,-,N/A,,Overcast,190,2012-12-31 15:55:00
9:15 AM,19.4,17.6,93,30.03,0.8,South,6.9,-,N/A,,Overcast,190,2012-12-31 16:15:00
9:35 AM,19.4,17.6,93,30.03,1.2,South,8.1,-,N/A,,Overcast,180,2012-12-31 16:35:00
9:55 AM,19.4,17.6,93,30.03,0.5,South,8.1,-,N/A,,Overcast,180,2012-12-31 16:55:00
10:15 AM,19.4,17.6,93,30.03,7.0,SSW,8.1,-,N/A,,Overcast,200,2012-12-31 17:15:00
10:35 AM,17.6,15.8,93,30.03,10.0,SSW,8.1,-,N/A,,Overcast,200,2012-12-31 17:35:00
10:55 AM,17.6,14.0,86,30.03,10.0,SSW,9.2,-,N/A,,Overcast,200,2012-12-31 17:55:00
11:15 AM,17.6,15.8,93,30.02,10.0,South,8.1,-,N/A,,Overcast,190,2012-12-31 18:15:00
11:35 AM,17.6,15.8,93,30.02,10.0,South,4.6,-,N/A,,Overcast,190,2012-12-31 18:35:00
11:55 AM,17.6,15.8,93,30.02,10.0,South,5.8,-,N/A,,Overcast,190,2012-12-31 18:55:00
12:35 PM,17.6,15.8,93,30.00,10.0,SSW,6.9,-,N/A,,Mostly Cloudy,200,2012-12-31 19:35:00
12:55 PM,19.4,14.0,80,30.00,10.0,SSW,5.8,-,N/A,,Overcast,200,2012-12-31 19:55:00
1:15 PM,21.2,15.8,80,29.99,10.0,SW,6.9,-,N/A,,Overcast,230,2012-12-31 20:15:00
1:35 PM,21.2,15.8,80,29.99,10.0,SW,6.9,-,N/A,,Overcast,230,2012-12-31 20:35:00
1:55 PM,21.2,15.8,80,29.99,10.0,SW,5.8,-,N/A,,Overcast,230,2012-12-31 20:55:00
2:15 PM,21.2,14.0,74,29.99,10.0,SW,5.8,-,N/A,,Overcast,220,2012-12-31 21:15:00
2:35 PM,21.2,14.0,74,29.99,10.0,SSW,4.6,-,N/A,,Overcast,210,2012-12-31 21:35:00
2:55 PM,19.4,14.0,80,30.00,10.0,South,4.6,-,N/A,,Mostly Cloudy,190,2012-12-31 21:55:00
3:15 PM,19.4,14.0,80,30.00,10.0,South,4.6,-,N/A,,Scattered Clouds,190,2012-12-31 22:15:00
3:35 PM,17.6,12.2,79,30.01,10.0,South,3.5,-,N/A,,Clear,190,2012-12-31 22:35:00
3:55 PM,17.6,12.2,79,30.01,10.0,South,3.5,-,N/A,,Clear,180,2012-12-31 22:55:00
4:15 PM,17.6,12.2,79,30.01,10.0,South,4.6,-,N/A,,Clear,170,2012-12-31 23:15:00
4:35 PM,17.6,12.2,79,30.01,10.0,South,3.5,-,N/A,,Clear,180,2012-12-31 23:35:00
4:55 PM,15.8,12.2,86,30.01,10.0,South,4.6,-,N/A,,Partly Cloudy,180,2012-12-31 23:55:00
5:55 PM,8.6,3.2,79,30.02,10.0,WSW,3.5,-,N/A,,Clear,240,2013-01-01 00:55:00
6:15 PM,10.4,8.6,92,30.01,10.0,WSW,3.5,-,N/A,,Scattered Clouds,250,2013-01-01 01:15:00
6:35 PM,10.4,8.6,92,30.01,10.0,WSW,5.8,-,N/A,,Mostly Cloudy,250,2013-01-01 01:35:00
6:56 PM,8.6,6.8,92,30.01,10.0,West,5.8,-,N/A,,Overcast,280,2013-01-01 01:56:00
7:15 PM,10.4,8.6,92,30.01,10.0,NW,5.8,-,N/A,,Overcast,320,2013-01-01 02:15:00
7:35 PM,10.4,8.6,92,-9999,10.0,Calm,Calm,-,N/A,,Overcast,0,2013-01-01 02:35:00
7:55 PM,12.2,8.6,85,-9999,10.0,Calm,Calm,-,N/A,,Overcast,0,2013-01-01 02:55:00
8:15 PM,12.2,8.6,85,-9999,10.0,Calm,Calm,-,N/A,,Overcast,0,2013-01-01 03:15:00
8:35 PM,12.2,10.4,92,-9999,10.0,Calm,Calm,-,N/A,,Overcast,0,2013-01-01 03:35:00
8:55 PM,12.2,8.6,85,-9999,10.0,NNW,5.8,-,N/A,,Overcast,340,2013-01-01 03:55:00
9:15 PM,14.0,10.4,86,30.02,10.0,Calm,Calm,-,N/A,,Overcast,0,2013-01-01 04:15:00
9:35 PM,12.2,10.4,92,30.03,10.0,North,4.6,-,N/A,,Overcast,350,2013-01-01 04:35:00
9:55 PM,12.2,6.8,79,-9999,10.0,Calm,Calm,-,N/A,,Overcast,0,2013-01-01 04:55:00
10:15 PM,12.2,10.4,92,-9999,10.0,Calm,Calm,-,N/A,,Overcast,0,2013-01-01 05:15:00
10:55 PM,8.6,5.0,85,-9999,10.0,West,4.6,-,N/A,,Scattered Clouds,270,2013-01-01 05:55:00
11:15 PM,6.8,1.4,79,-9999,10.0,West,4.6,-,N/A,,Partly Cloudy,260,2013-01-01 06:15:00
11:35 PM,8.6,5.0,85,-9999,10.0,WSW,4.6,-,N/A,,Clear,250,2013-01-01 06:35:00
11:55 PM,6.8,-0.4,72,-9999,10.0,WSW,4.6,-,N/A,,Clear,250,2013-01-01 06:55:00